TimeCST,TemperatureF,Dew PointF,Humidity,Sea Level PressureIn,VisibilityMPH,Wind Direction,Wind SpeedMPH,Gust SpeedMPH,PrecipitationIn,Events,Conditions,WindDirDegrees,DateUTC
12:00 AM,19.4,17.6,93,29.91,0.8,NE,11.5,-,0.00,Snow,Light Snow,40,2013-02-22 06:00:00
12:49 AM,19.4,15.8,86,29.91,2.0,North,6.9,-,0.04,Snow,Light Snow,10,2013-02-22 06:49:00
12:52 AM,19.0,16.0,88,29.96,2.0,NNE,8.1,-,0.11,Snow,Light Snow,30,2013-02-22 06:52:00
1:09 AM,19.4,15.8,86,29.91,1.5,NNE,8.1,-,0.00,Snow,Light Snow,20,2013-02-22 07:09:00
1:44 AM,19.4,15.8,86,29.91,1.0,North,9.2,-,0.01,Snow,Light Snow,360,2013-02-22 07:44:00
1:52 AM,19.0,16.0,88,29.96,1.2,North,9.2,-,0.01,Snow,Light Snow,360,2013-02-22 07:52:00
2:10 AM,19.4,15.8,86,29.91,1.8,North,10.4,-,0.01,Snow,Light Snow,350,2013-02-22 08:10:00
2:52 AM,18.0,15.1,88,29.95,2.0,North,10.4,-,0.02,Snow,Light Snow,360,2013-02-22 08:52:00
3:02 AM,17.6,15.8,93,29.90,3.0,North,11.5,-,0.00,Snow,Light Snow,360,2013-02-22 09:02:00
3:44 AM,17.6,14.0,86,29.90,2.5,North,9.2,-,0.00,Snow,Light Snow,350,2013-02-22 09:44:00
3:52 AM,17.1,14.0,88,29.95,3.0,NNW,11.5,-,0.00,Snow,Light Snow,340,2013-02-22 09:52:00
4:16 AM,17.6,14.0,86,29.90,2.5,NNW,12.7,-,0.00,Snow,Light Snow,340,2013-02-22 10:16:00
4:29 AM,17.6,14.0,86,29.90,1.8,NNW,10.4,-,0.01,Snow,Light Snow,330,2013-02-22 10:29:00
4:36 AM,17.6,14.0,86,29.90,2.5,NNW,11.5,-,0.01,Snow,Light Snow,330,2013-02-22 10:36:00
4:52 AM,17.1,14.0,88,29.96,2.0,NNW,12.7,-,0.01,Snow,Light Snow,330,2013-02-22 10:52:00
5:27 AM,15.8,14.0,93,29.91,3.0,NNW,12.7,-,0.00,Snow,Light Snow,330,2013-02-22 11:27:00
5:52 AM,17.1,12.9,84,29.96,4.0,NNW,16.1,-,0.01,Snow,Light Snow,330,2013-02-22 11:52:00
6:52 AM,16.0,12.9,88,29.96,8.0,NNW,16.1,-,0.00,,Clear,340,2013-02-22 12:52:00
7:52 AM,16.0,12.9,88,29.98,10.0,NNW,17.3,-,0.00,,Overcast,340,2013-02-22 13:52:00
8:10 AM,17.6,12.2,79,29.92,2.0,NNW,15.0,-,0.00,Snow,Light Snow,330,2013-02-22 14:10:00
8:17 AM,17.6,12.2,79,29.93,1.0,NNW,11.5,-,0.00,Snow,Light Snow,340,2013-02-22 14:17:00
8:52 AM,17.1,14.0,88,29.98,1.0,NNW,11.5,-,0.00,Snow,Light Snow,330,2013-02-22 14:52:00
8:54 AM,17.6,14.0,86,29.92,7.0,NNW,11.5,-,N/A,,Overcast,330,2013-02-22 14:54:00
9:23 AM,17.6,14.0,86,29.93,2.5,NNW,9.2,-,0.01,Snow,Light Snow,330,2013-02-22 15:23:00
9:34 AM,19.4,14.0,80,29.93,2.0,NNW,10.4,-,0.01,Snow,Light Snow,330,2013-02-22 15:34:00
9:52 AM,19.0,14.0,81,29.99,3.0,NW,9.2,-,0.01,Snow,Light Snow,310,2013-02-22 15:52:00
10:52 AM,19.9,15.1,81,30.01,5.0,NW,10.4,-,0.00,Snow,Light Snow,320,2013-02-22 16:52:00
11:52 AM,21.0,15.1,78,30.02,10.0,NW,13.8,-,0.00,,Overcast,320,2013-02-22 17:52:00
12:12 PM,19.4,14.0,80,29.97,10.0,NW,12.7,-,N/A,,Scattered Clouds,320,2013-02-22 18:12:00
12:39 PM,21.2,15.8,80,29.97,10.0,NW,11.5,-,N/A,,Mostly Cloudy,320,2013-02-22 18:39:00
12:52 PM,21.9,16.0,78,30.03,10.0,NW,13.8,-,N/A,,Mostly Cloudy,320,2013-02-22 18:52:00
1:38 PM,23.0,15.8,74,29.96,10.0,NW,12.7,-,N/A,,Scattered Clouds,320,2013-02-22 19:38:00
1:52 PM,21.9,16.0,78,30.01,10.0,NW,12.7,-,N/A,,Scattered Clouds,320,2013-02-22 19:52:00
2:03 PM,23.0,15.8,74,29.96,10.0,NW,16.1,-,N/A,,Mostly Cloudy,320,2013-02-22 20:03:00
2:11 PM,23.0,15.8,74,29.96,10.0,NNW,13.8,-,N/A,,Scattered Clouds,340,2013-02-22 20:11:00
2:52 PM,21.9,15.1,75,30.02,10.0,WNW,12.7,-,N/A,,Scattered Clouds,300,2013-02-22 20:52:00
3:14 PM,23.0,15.8,74,29.97,10.0,WNW,13.8,-,N/A,,Mostly Cloudy,300,2013-02-22 21:14:00
3:43 PM,21.2,15.8,80,29.97,10.0,WNW,15.0,-,N/A,,Scattered Clouds,300,2013-02-22 21:43:00
3:52 PM,21.9,14.0,72,30.03,10.0,NW,9.2,-,N/A,,Partly Cloudy,310,2013-02-22 21:52:00
4:15 PM,21.2,15.8,80,29.98,10.0,WNW,10.4,-,N/A,,Mostly Cloudy,300,2013-02-22 22:15:00
4:52 PM,21.9,15.1,75,30.04,10.0,NW,12.7,-,N/A,,Overcast,320,2013-02-22 22:52:00
5:27 PM,21.2,15.8,80,29.98,10.0,NNW,11.5,-,N/A,,Mostly Cloudy,330,2013-02-22 23:27:00
5:52 PM,19.9,15.1,81,30.04,10.0,NW,10.4,-,N/A,,Partly Cloudy,320,2013-02-22 23:52:00
6:52 PM,18.0,12.9,81,30.05,10.0,NW,6.9,-,N/A,,Clear,310,2013-02-23 00:52:00
7:52 PM,16.0,12.9,88,30.06,10.0,West,5.8,-,N/A,,Clear,280,2013-02-23 01:52:00
8:52 PM,12.0,10.0,92,30.06,10.0,West,4.6,-,N/A,,Clear,270,2013-02-23 02:52:00
9:52 PM,10.9,9.0,92,30.06,10.0,West,4.6,-,N/A,,Partly Cloudy,280,2013-02-23 03:52:00
10:52 PM,10.0,7.0,87,30.05,10.0,West,5.8,-,N/A,,Clear,260,2013-02-23 04:52:00
11:52 PM,7.0,6.1,96,30.05,10.0,WSW,3.5,-,N/A,,Clear,250,2013-02-23 05:52:00